Погода в Гёрдесе

Турция     38°56′06″N   28°17′22″E
темп.,
°C
ветер,
м/с
пор.,
м/с
влажн.,
%
обл.,
%
осадки,
мм/ч
давл.,
гПа
погр.,
м
17 сентября, пт
пт1700:00+14с33670 0.0 101822
03:00+13ссв33700 0.0 101822
06:00+12ссв32670 0.0 101717
09:00+18с24400 0.0 1017414
12:00+24с57260 0.0 10151747
15:00+27ссз56200 0.0 10132126
18:00+25ссз57250 0.0 10131563
21:00+19с22385 0.0 101411
18 сентября, сб
сб1800:00+19ссв11405 0.0 101511
03:00+18вюв11445 0.0 101411
06:00+17вюв22465 0.0 101411
09:00+22ююв22325 0.0 1014231
12:00+28юз4725100 0.0 10131610
15:00+30з58240 0.0 10122452
18:00+28з810280 0.0 10111763
21:00+21зсз22460 0.0 101311
19 сентября, вс
вс1900:00+20юз014918 0.0 101311
03:00+19в11480 0.0 101311
06:00+19ююв11520 0.0 101411
09:00+24юз23380 0.0 1014352
12:00+29з611270 0.0 10142407
15:00+30зсз811233 0.0 10132823
18:00+29з710250 0.0 10122069
21:00+22зсз223911 0.0 101412
20 сентября, пн
пн2000:00+20с22517 0.9 101526
03:00+20ююв22496 1.2 101411
06:00+19юв22510 0.0 101313
09:00+24ю12370 0.0 1014216
12:00+29зюз47260 0.0 10141991
15:00+30з46220 0.0 10122817
18:00+28з66230 0.0 10122247
21:00+21с33510 0.0 101522
21 сентября, вт
вт2100:00+20ссв11564 0.0 101611
03:00+19в11585 0.0 101611
06:00+18всв225796 0.0 101611
09:00+23вюв21405 0.0 1016208
12:00+29ююз332351 0.0 10152031
15:00+31зюз5517100 0.0 10132935
18:00+29зсз882248 0.0 10141521
21:00+22ссз43425 0.0 101534